Location: McMath-Hulbert Observatory
(42.6964°N, 83.3187°W)
Time: 13:12:04
(UTC-05:00)

Daily predictions for brighter satellites

Satellite Brightness Start Highest point End
(mag) Time Altitude Azimuth Time Altitude Azimuth Time Altitude Azimuth
Cosmos 2237 Rocket 2.9 17:53:03 10° S 17:58:05 35° ESE 18:03:09 10° NE
COSMOS 2428 3.0 17:54:12 10° SSW 17:59:55 77° WNW 18:05:39 10° NNE
SL-14 R/B 4.3 17:57:07 10° SSE 18:00:23 26° E 18:03:43 10° NNE
COSMO-SKYMED 1 3.5 17:57:36 10° NE 18:01:22 28° E 18:05:06 10° SSE
YAOGAN 1 2.5 17:58:01 10° SSE 18:02:19 74° ENE 18:06:40 10° N
Cosmos 1300 3.4 18:00:50 10° N 18:04:21 33° ENE 18:07:51 10° SE
SL-16 R/B 3.7 18:01:04 10° SE 18:04:33 17° E 18:08:02 10° ENE
Cosmos 1484 Rocket 3.3 18:01:10 10° SE 18:04:50 40° ENE 18:08:36 10° N
USA 116 3.1 18:02:51 10° NNE 18:06:04 88° ESE 18:09:08 10° SSW
Cosmos 44 3.9 18:01:28 10° S 18:06:26 43° ESE 18:11:13 10° NE
Cosmos 1763 Rocket 3.8 18:02:23 10° SSW 18:07:36 73° WNW 18:12:46 10° NNE
ALOS 4.1 18:08:39 10° E 18:10:13 12° ENE 18:11:47 10° NE
MONITOR-E 4.5 18:08:27 10° SSE 18:11:30 46° ENE 18:14:34 10° N
Cosmos 372 Rocket 4.3 18:07:50 10° N 18:12:41 41° ENE 18:17:29 10° SE
Cosmos 2228 Rocket 3.4 18:10:26 10° NNW 18:14:51 75° W 18:19:17 10° S
Cosmos 2279 Rocket 4.4 18:09:31 10° N 18:15:22 41° ENE 18:21:11 10° SE
Cosmos 371 Rocket 3.2 18:17:13 10° SSW 18:22:01 83° ESE 18:26:52 10° NNE
Cosmos 540 Rocket 3.6 18:17:20 10° S 18:22:22 54° ESE 18:27:24 10° NNE
MSX 4.0 18:19:03 10° S 18:24:46 80° WSW 18:30:32 10° NNW
Cosmos 1844 Rocket 3.6 18:19:18 10° NNW 18:24:49 55° WSW 18:30:17 10° S
USA 215 3.4 18:20:26 10° ESE 18:26:46 54° NNE 18:33:07 10° NW
Cosmos 2151 3.0 18:23:45 10° S 18:27:51 57° E 18:31:59 10° NNE
SMAP 4.1 18:24:25 10° S 18:28:55 51° W 18:33:28 10° NNW
Meteor 1-28 Rocket 3.8 18:26:10 10° NNE 18:29:37 35° E 18:33:03 10° SSE
DNEPR-1 R/B 4.5 18:25:13 10° SSW 18:32:12 88° NW 18:37:52 10° NNE
Cosmos 1743 Rocket 4.4 18:28:29 10° SSW 18:32:52 56° W 18:37:18 10° N
Lacrosse 5 rocket 1.2 18:29:27 10° NW 18:33:10 55° NE 18:37:04 10° ESE
Meteor 1-11 4.3 18:32:42 10° S 18:38:16 60° E 18:43:56 10° NNE
FREGAT/IRIS 3.8 18:36:39 10° SE 18:39:06 23° ENE 18:41:35 10° NNE
Meteor 2-10 3.9 18:37:44 10° N 18:42:49 66° ENE 18:48:00 10° SSE
Cosmos 44 Rocket 3.8 18:37:49 10° SW 18:42:53 62° NW 18:47:54 10° NNE
Cosmos 2360 Rocket 4.5 18:39:12 10° W 18:43:08 19° NW 18:47:05 10° N
Cosmos 1151 Rocket 3.2 18:40:54 10° NNW 18:45:10 72° W 18:49:27 10° S
CZ-4 R/B 4.0 18:42:15 10° SSW 18:45:22 23° W 18:48:30 10° NW
Cosmos 1980 3.7 18:40:10 10° SSW 18:45:52 87° WNW 18:51:35 10° NNE
FENGYUN 3A 4.4 18:43:18 10° ESE 18:47:47 28° ENE 18:52:19 10° N
Cosmos 1328 4.4 18:45:33 10° SSW 18:49:26 57° W 18:53:20 10° N
SKYMED 2 3.6 18:45:14 10° NNE 18:49:36 87° WNW 18:53:56 10° SSW
Cosmos 1805 Rocket 3.8 18:47:32 10° SSE 18:51:48 47° E 18:56:06 10° NNE
Cosmos 1125 Rocket 4.0 18:47:00 10° NNW 18:52:08 62° WSW 18:57:15 10° S
DMSP B5D1-3 4.4 18:49:47 10° NNE 18:54:54 74° ESE 18:59:59 10° S
METEOR-M 4.1 18:50:03 10° SSE 18:55:17 60° ENE 19:00:34 10° N
Transit 2A Rocket 4.5 18:53:39 10° NNW 18:58:00 85° WSW 19:02:19 10° SSE
ATLAS 5 CENTAUR R/B 4.3 18:57:34 10° N 18:58:54 11° NNE 18:59:55 10° NNE
Lacrosse 5 3.9 18:56:11 10° NW 18:59:23 17° N 19:01:55 12° NNE
Spot 2 Rocket 4.1 18:56:56 10° SE 19:01:25 33° ENE 19:05:54 10° N
Cosmos 2333 Rocket 2.8 18:57:23 10° SW 19:02:54 55° WNW 19:08:28 10° NNE
Abrixas 2.3 19:00:15 10° WSW 19:03:10 76° SSE 19:03:34 60° E
Cosmos 304 Rocket 3.7 18:58:29 10° S 19:03:13 63° ESE 19:06:42 18° NNE
SJ-6B 2.9 18:59:55 10° SSE 19:03:55 59° ENE 19:08:00 10° N
USA 229 DEB 4.5 18:59:26 10° S 19:05:12 30° ESE 19:07:08 26° E
USA 229 4.5 18:59:34 10° S 19:05:19 30° ESE 19:07:11 26° E
CENTAUR R/B 3.9 19:00:23 10° W 19:06:01 33° NW 19:12:20 10° NNE
Lacrosse 4 Rocket 3.0 19:04:24 10° N 19:06:09 18° NNE 19:06:09 18° NNE
Cosmos 2219 Rocket 3.4 19:03:03 10° SW 19:08:19 40° WNW 19:13:36 10° NNE
Cosmos 1900 4.3 19:04:44 10° NNW 19:09:40 62° NE 19:13:19 18° SE
Sich 1 3.2 19:07:08 10° SSE 19:11:25 49° E 19:13:25 28° NE
Cosmos 1703 3.1 19:07:42 10° S 19:11:36 78° E 19:14:26 18° NNE
Cosmos 1538 Rocket 4.1 19:06:55 10° S 19:12:02 52° ESE 19:14:49 26° NE
Cosmos 1626 2.0 19:10:48 10° S 19:14:29 63° E 19:15:28 44° NE
NOAA 12 4.1 19:09:50 10° SSE 19:15:05 86° WSW 19:20:23 10° NNW
Cosmos 2278 Rocket 3.3 19:11:08 10° NW 19:16:34 47° WSW 19:21:58 10° S
Cosmos 1633 Rocket 3.2 19:13:09 10° SSE 19:17:24 50° E 19:18:22 42° NE
Cosmos 1455 2.1 19:17:06 10° N 19:24:27 11° SSE 19:24:37 10° SSE
Iridium 4 Rocket 3.9 19:18:27 10° SSE 19:21:25 33° SE 19:21:25 33° SE
Cosmos 1461 2.7 19:21:14 10° SSW 19:25:25 77° ESE 19:26:00 62° ENE
Cosmos 2058 4.3 19:24:22 10° SW 19:28:11 38° WNW 19:32:02 10° N
OTV 4 3.5 19:28:38 10° SW 19:29:14 10° SSW 19:29:51 10° SSW
CZ-4C R/B 4.4 19:25:55 10° NNW 19:29:35 15° NNE 19:30:13 15° NNE
Cosmos 1340 Rocket 4.0 19:29:03 10° SSW 19:32:47 41° WNW 19:36:30 10° N
Aureole 2 Rocket 4.1 19:29:58 10° SW 19:33:27 37° WNW 19:35:57 18° N
Cosmos 1707 Rocket 4.0 19:35:24 10° NNW 19:39:40 59° W 19:43:55 10° S
Resurs 01 Rocket 1.4 19:40:44 74° SE 19:41:03 79° ENE 19:45:31 10° N
Cosmos 2237 Rocket 3.6 19:36:57 10° WSW 19:42:06 35° WNW 19:47:12 10° N
Cosmos 2369 Rocket 3.9 19:41:54 10° N 19:43:53 18° NNE 19:43:53 18° NNE
ALOS 2.2 19:42:17 10° SSE 19:46:57 85° WSW 19:51:39 10° NNW
SL-16 R/B 2.4 19:42:23 10° SSW 19:48:00 70° WNW 19:50:50 30° NNE
BREEZE-M DEB (TANK) 4.4 19:48:36 10° W 19:49:05 14° WNW 19:49:05 14° WNW
Cosmos 1356 Rocket 4.1 19:46:46 10° SSW 19:50:39 50° WNW 19:51:30 42° NW
Cosmos 1666 Rocket 4.1 19:46:34 10° SSW 19:50:49 56° W 19:52:47 30° NNW
Cosmos 773 Rocket 3.8 19:51:23 10° SSW 19:56:27 85° SSE 19:56:27 85° SSE
Aureole 1 Rocket 3.7 19:56:23 10° SSW 20:01:39 89° ESE 20:03:16 53° NNE
USA 215 3.9 20:05:31 21° SSE 20:09:47 51° SW 20:16:09 10° WNW
BREEZE-M DEB (TANK) 4.5 19:55:37 10° W 20:10:48 51° N 20:11:21 50° NNE
Lacrosse 5 rocket 3.7 20:09:23 10° W 20:12:05 18° SW 20:13:11 16° SW
Lacrosse 5 4.4 20:40:26 10° NNW 20:41:08 13° NNW 20:41:08 13° NNW
ATLAS 5 CENTAUR R/B 4.5 20:40:22 10° NNW 20:41:29 15° NNW 20:41:29 15° NNW
USA 229 DEB 4.3 20:48:58 10° SW 20:54:39 54° W 20:54:39 54° W
USA 229 4.3 20:49:04 10° SW 20:54:41 53° W 20:54:41 53° W
